Flag for Rwanda Weather past 2 weeks in Kigali, Rwanda

Now
68 °F

Passing clouds.


Feels Like: 68 °F
Forecast: 62 / 76 °F
Wind: 5 mph from Southeast

Location: Kigali Airport

Current Time: Apr 27, 2015 at 7:20:01 PM

Latest Report: Apr 27, 2015 at 7:00 PM


Visibility: N/A

Pressure: 30.15 "Hg

Humidity: 94%

Dew point: 66 °F

Location of KigaliLocation

Historic Weather in Kigali — Graph

°F

Kigali temperature yesterday

Maximum temperature yesterday: 75 °F (at 11:30 AM)
Minimum temperature yesterday: 63 °F (at 5:00 AM)
Average temperature yesterday: 68 °F

Past Weeks' High & Low Weather Summary

 TemperatureHumidityPressure
High82 °F (Apr 14, 12:30 PM)100% (Apr 12, 9:30 PM)30.27 "Hg (Apr 12, 9:30 PM)
Low61 °F (Apr 13, 6:00 AM)54% (Apr 20, 12:30 PM)30.01 "Hg (Apr 14, 2:30 PM)
Average69 °F90%30.15 "Hg
* Reported Apr 12 6:00 PM — Apr 27 6:30 PM, Kigali, Weather by CustomWeather, © 2015

Note: Actual official high and low records may vary slightly from our data, if they occured in-between our weather recording intervals... More about our weather records

Advertising

Kigali weather history for previous 24 hours

 ConditionsComfort  
Time TempWeatherWind HumidityBarometerVisibility
6:30 PM
Mon, Apr 27
70 °FPassing clouds.6 mph88%30.15 "HgN/A
6:00 PM70 °FPassing clouds.6 mph88%30.12 "HgN/A
5:30 PM72 °FScattered clouds.7 mph83%30.12 "HgN/A
5:00 PM73 °FScattered clouds.7 mph74%30.09 "HgN/A
4:30 PM73 °FBroken clouds.6 mph74%30.09 "HgN/A
4:00 PM73 °FBroken clouds.6 mph74%30.09 "HgN/A
3:30 PM73 °FBroken clouds.7 mph74%30.09 "HgN/A
3:00 PM73 °FBroken clouds.5 mph74%30.09 "HgN/A
2:30 PM75 °FScattered clouds.5 mph65%30.12 "HgN/A
1:30 PM73 °FBroken clouds.3 mph78%30.15 "HgN/A
1:00 PM72 °FBroken clouds.3 mph83%30.18 "HgN/A
12:30 PM70 °FBroken clouds.3 mph88%30.21 "HgN/A
12:00 PM68 °FBroken clouds.3 mph88%30.21 "HgN/A
11:30 AM68 °FBroken clouds.3 mph88%30.24 "HgN/A
10:30 AM66 °FLight rain. Broken clouds.3 mph100%30.24 "HgN/A
10:00 AM66 °FLight rain. Broken clouds.No wind100%30.24 "HgN/A
9:30 AM66 °FBroken clouds.3 mph94%30.24 "HgN/A
9:00 AM66 °FBroken clouds.No wind100%30.24 "HgN/A
8:30 AM64 °FBroken clouds.No wind100%30.24 "HgN/A
8:00 AM64 °FBroken clouds.No wind100%30.21 "HgN/A
7:30 AM64 °FLight rain. Broken clouds.No wind100%30.21 "HgN/A
7:00 AM64 °FBroken clouds.No wind100%30.21 "HgN/A
6:30 AM63 °FBroken clouds.No wind100%30.18 "HgN/A
6:00 AM63 °FBroken clouds.No wind100%30.15 "HgN/A
4:30 AM64 °FPartly cloudy.No wind100%30.15 "Hg5 mi
4:00 AM64 °FPartly cloudy.No wind100%30.15 "Hg5 mi
3:30 AM64 °FPartly cloudy.3 mph100%30.15 "Hg5 mi
3:00 AM64 °FPartly cloudy.3 mph100%30.15 "Hg5 mi
2:30 AM66 °FPartly cloudy.5 mph100%30.15 "Hg5 mi
2:00 AM66 °FPartly cloudy.3 mph100%30.15 "Hg5 mi
1:30 AM66 °FPartly cloudy.5 mph100%30.15 "HgN/A
1:00 AM66 °FPartly cloudy.7 mph100%30.15 "HgN/A
12:30 AM66 °FPassing clouds.7 mph100%30.15 "HgN/A
12:00 AM66 °FPassing clouds.No wind100%30.18 "HgN/A
11:30 PM
Sun, Apr 26
66 °FPassing clouds.No wind100%30.18 "HgN/A
11:00 PM66 °FPartly cloudy.3 mph100%30.15 "HgN/A
10:30 PM66 °FPartly cloudy.No wind100%30.15 "HgN/A
10:00 PM66 °FPartly cloudy.No wind100%30.18 "HgN/A
9:00 PM66 °FPassing clouds.3 mph100%30.18 "HgN/A
8:30 PM66 °FPassing clouds.3 mph100%30.15 "HgN/A
8:00 PM66 °FPassing clouds.3 mph100%30.15 "HgN/A
7:30 PM68 °FPartly cloudy.3 mph100%30.12 "HgN/A
Weather by CustomWeather, © 2015

See weather overviewHow to use our weather pages